Time,TemperatureF,DewpointF,PressureIn,WindDirection,WindDirectionDegrees,WindSpeedMPH,WindSpeedGustMPH,Humidity,HourlyPrecipIn,Conditions,Clouds,dailyrainin,SoftwareType,DateUTC
2013-03-10 00:00:00,53.6,51.3,29.52,SSW,195,5.0,9.0,92,0.00,RA,,0.00,WeatherDisplay:10.37,2013-03-10 06:00:00,
2013-03-10 00:10:00,53.2,50.9,29.51,SSW,200,3.0,6.0,92,0.00,RA,,0.00,WeatherDisplay:10.37,2013-03-10 06:10:00,
2013-03-10 00:15:00,52.8,50.2,29.51,SSW,197,2.0,5.0,91,0.00,RA,,0.00,WeatherDisplay:10.37,2013-03-10 06:15:00,
2013-03-10 00:20:00,52.2,49.7,29.49,SSW,196,1.0,3.0,91,0.00,CLR,,0.00,WeatherDisplay:10.37,2013-03-10 06:20:00,
2013-03-10 00:30:00,51.8,49.5,29.50,SSW,196,3.0,5.0,92,0.00,CLR,,0.00,WeatherDisplay:10.37,2013-03-10 06:30:00,
2013-03-10 00:40:00,51.5,49.3,29.51,SSW,195,2.0,5.0,92,0.00,CLR,,0.00,WeatherDisplay:10.37,2013-03-10 06:40:00,
2013-03-10 00:45:00,51.4,49.2,29.50,South,189,2.0,5.0,92,0.00,CLR,,0.00,WeatherDisplay:10.37,2013-03-10 06:45:00,
2013-03-10 00:50:00,51.4,49.2,29.49,South,176,3.0,6.0,92,0.00,CLR,,0.00,WeatherDisplay:10.37,2013-03-10 06:50:00,
2013-03-10 00:55:00,51.3,49.1,29.49,South,169,3.0,5.0,92,0.00,CLR,,0.00,WeatherDisplay:10.37,2013-03-10 06:55:00,
2013-03-10 01:00:00,51.3,49.1,29.50,SSE,165,3.0,6.0,92,0.00,CLR,,0.00,WeatherDisplay:10.37,2013-03-10 07:00:00,
2013-03-10 01:10:00,51.4,49.2,29.50,South,169,5.0,7.0,92,0.00,CLR,,0.00,WeatherDisplay:10.37,2013-03-10 07:10:00,
2013-03-10 01:15:00,51.0,48.8,29.50,SSE,168,5.0,7.0,92,0.00,CLR,,0.00,WeatherDisplay:10.37,2013-03-10 07:15:00,
2013-03-10 01:20:00,50.8,48.6,29.50,SSE,168,2.0,6.0,92,0.00,CLR,,0.00,WeatherDisplay:10.37,2013-03-10 07:20:00,
2013-03-10 01:25:00,50.7,48.5,29.50,South,173,3.0,5.0,92,0.00,CLR,,0.00,WeatherDisplay:10.37,2013-03-10 07:25:00,
2013-03-10 01:30:00,50.7,48.5,29.49,South,169,3.0,5.0,92,0.00,CLR,,0.00,WeatherDisplay:10.37,2013-03-10 07:30:00,
2013-03-10 01:40:00,50.7,48.4,29.50,South,170,3.0,5.0,92,0.00,CLR,,0.00,WeatherDisplay:10.37,2013-03-10 07:40:00,
2013-03-10 01:45:00,50.4,48.2,29.51,South,172,2.0,5.0,92,0.00,CLR,,0.00,WeatherDisplay:10.37,2013-03-10 07:45:00,
2013-03-10 01:50:00,50.3,48.1,29.51,South,178,2.0,4.0,92,0.00,CLR,,0.00,WeatherDisplay:10.37,2013-03-10 07:50:00,
2013-03-10 03:00:00,50.5,48.3,29.52,West,266,5.0,7.0,92,0.00,CLR,,0.00,WeatherDisplay:10.37,2013-03-10 08:00:00,
2013-03-10 03:10:00,50.4,48.1,29.52,WNW,294,0.0,3.0,92,0.00,OVC,,0.00,WeatherDisplay:10.37,2013-03-10 08:10:00,
2013-03-10 03:15:00,50.7,48.4,29.51,WNW,294,2.0,4.0,92,0.00,OVC,,0.00,WeatherDisplay:10.37,2013-03-10 08:15:00,
2013-03-10 03:25:00,51.0,49.0,29.51,WNW,291,2.0,4.0,93,0.00,OVC,,0.00,WeatherDisplay:10.37,2013-03-10 08:25:00,
2013-03-10 03:30:00,51.4,49.4,29.51,West,266,3.0,4.0,93,0.00,OVC,,0.00,WeatherDisplay:10.37,2013-03-10 08:30:00,
2013-03-10 03:40:00,51.3,49.1,29.51,SW,225,6.0,8.0,92,0.00,OVC,,0.00,WeatherDisplay:10.37,2013-03-10 08:40:00,
2013-03-10 03:45:00,51.4,49.1,29.51,SW,217,6.0,12.0,92,0.00,OVC,,0.00,WeatherDisplay:10.37,2013-03-10 08:45:00,
2013-03-10 03:50:00,51.4,49.2,29.51,SSW,208,5.0,7.0,92,0.00,OVC,,0.00,WeatherDisplay:10.37,2013-03-10 08:50:00,
2013-03-10 04:00:00,51.2,49.0,29.51,SSW,208,5.0,7.0,92,0.00,OVC,,0.00,WeatherDisplay:10.37,2013-03-10 09:00:00,
2013-03-10 04:05:00,51.1,48.9,29.51,SSW,209,3.0,7.0,92,0.00,OVC,,0.00,WeatherDisplay:10.37,2013-03-10 09:05:00,
2013-03-10 04:10:00,51.2,49.0,29.50,SSW,203,6.0,8.0,92,0.00,OVC,,0.00,WeatherDisplay:10.37,2013-03-10 09:10:00,
2013-03-10 04:15:00,51.1,48.9,29.49,SSW,196,5.0,7.0,92,0.00,OVC,,0.00,WeatherDisplay:10.37,2013-03-10 09:15:00,
2013-03-10 04:20:00,51.0,48.7,29.49,South,189,3.0,6.0,92,0.00,OVC,,0.00,WeatherDisplay:10.37,2013-03-10 09:20:00,
2013-03-10 04:30:00,50.7,48.4,29.49,South,177,5.0,7.0,92,0.00,OVC,,0.00,WeatherDisplay:10.37,2013-03-10 09:30:00,
2013-03-10 04:40:00,50.5,48.3,29.47,South,183,2.0,4.0,92,0.00,OVC,,0.00,WeatherDisplay:10.37,2013-03-10 09:40:00,
2013-03-10 04:45:00,50.5,48.3,29.45,South,183,3.0,6.0,92,0.00,OVC,,0.00,WeatherDisplay:10.37,2013-03-10 09:45:00,
2013-03-10 04:50:00,50.5,48.3,29.48,SSW,194,6.0,10.0,92,0.00,OVC,,0.00,WeatherDisplay:10.37,2013-03-10 09:50:00,
2013-03-10 04:55:00,50.5,48.3,29.47,SSW,201,5.0,7.0,92,0.00,OVC,,0.00,WeatherDisplay:10.37,2013-03-10 09:55:00,
2013-03-10 05:00:00,50.5,48.3,29.49,SSW,207,6.0,10.0,92,0.00,OVC,,0.00,WeatherDisplay:10.37,2013-03-10 10:00:00,
2013-03-10 05:10:00,50.6,48.4,29.52,SSW,211,6.0,8.0,92,0.00,OVC,,0.00,WeatherDisplay:10.37,2013-03-10 10:10:00,
2013-03-10 05:15:00,50.6,48.4,29.52,SSW,212,3.0,5.0,92,0.00,OVC,,0.00,WeatherDisplay:10.37,2013-03-10 10:15:00,
2013-03-10 05:20:00,50.6,48.3,29.52,SW,215,6.0,7.0,92,0.00,OVC,,0.00,WeatherDisplay:10.37,2013-03-10 10:20:00,
2013-03-10 05:25:00,50.5,48.3,29.54,SSW,211,5.0,8.0,92,0.00,OVC,,0.00,WeatherDisplay:10.37,2013-03-10 10:25:00,
2013-03-10 05:30:00,50.6,48.4,29.54,SW,226,3.0,9.0,92,0.00,OVC,,0.00,WeatherDisplay:10.37,2013-03-10 10:30:00,
2013-03-10 05:35:00,47.1,43.4,29.54,NW,304,16.0,20.0,87,0.00,OVC,,0.00,WeatherDisplay:10.37,2013-03-10 10:35:00,
2013-03-10 05:40:00,44.9,42.2,29.54,NW,316,12.0,15.0,90,0.00,OVC,,0.00,WeatherDisplay:10.37,2013-03-10 10:40:00,
2013-03-10 05:45:00,43.5,41.0,29.54,NW,319,12.0,16.0,91,0.00,OVC,,0.00,WeatherDisplay:10.37,2013-03-10 10:45:00,
2013-03-10 05:50:00,42.7,40.3,29.54,NW,326,12.0,17.0,91,0.00,OVC,,0.00,WeatherDisplay:10.37,2013-03-10 10:50:00,
2013-03-10 05:55:00,41.9,39.5,29.53,NNW,332,12.0,16.0,91,0.00,OVC,,0.00,WeatherDisplay:10.37,2013-03-10 10:55:00,
2013-03-10 06:00:00,41.3,39.2,29.53,NNW,332,10.0,15.0,92,0.00,OVC,,0.00,WeatherDisplay:10.37,2013-03-10 11:00:00,
2013-03-10 06:05:00,41.0,38.9,29.53,NNW,327,12.0,14.0,92,0.00,OVC,,0.00,WeatherDisplay:10.37,2013-03-10 11:05:00,
2013-03-10 06:10:00,40.8,38.7,29.55,NNW,333,9.0,15.0,92,0.00,OVC,,0.00,WeatherDisplay:10.37,2013-03-10 11:10:00,
2013-03-10 06:15:00,40.4,38.2,29.56,NNW,335,13.0,17.0,92,0.00,OVC,,0.00,WeatherDisplay:10.37,2013-03-10 11:15:00,
2013-03-10 06:20:00,39.9,37.8,29.56,NNW,338,14.0,17.0,92,0.00,OVC,,0.00,WeatherDisplay:10.37,2013-03-10 11:20:00,
2013-03-10 06:25:00,39.7,37.6,29.55,NNW,339,13.0,15.0,92,0.00,OVC,,0.00,WeatherDisplay:10.37,2013-03-10 11:25:00,
2013-03-10 06:30:00,39.2,37.1,29.55,NNW,333,12.0,18.0,92,0.00,OVC,,0.00,WeatherDisplay:10.37,2013-03-10 11:30:00,
2013-03-10 06:35:00,38.4,36.3,29.54,NNW,332,15.0,20.0,92,0.00,OVC,,0.00,WeatherDisplay:10.37,2013-03-10 11:35:00,
2013-03-10 06:40:00,38.3,36.2,29.53,NNW,334,13.0,17.0,92,0.00,OVC,,0.00,WeatherDisplay:10.37,2013-03-10 11:40:00,
2013-03-10 06:45:00,38.2,36.3,29.54,NNW,335,14.0,18.0,93,0.00,OVC,,0.00,WeatherDisplay:10.37,2013-03-10 11:45:00,
2013-03-10 06:50:00,38.0,35.9,29.54,NNW,336,13.0,17.0,92,0.00,OVC,,0.00,WeatherDisplay:10.37,2013-03-10 11:50:00,
2013-03-10 06:55:00,37.9,35.8,29.55,NNW,337,13.0,20.0,92,0.00,OVC,,0.00,WeatherDisplay:10.37,2013-03-10 11:55:00,
2013-03-10 07:00:00,37.7,35.9,29.55,NNW,332,14.0,20.0,93,0.00,OVC,,0.00,WeatherDisplay:10.37,2013-03-10 12:00:00,
2013-03-10 07:05:00,37.7,35.9,29.56,NNW,336,12.0,16.0,93,0.00,OVC,,0.00,WeatherDisplay:10.37,2013-03-10 12:05:00,
2013-03-10 07:10:00,37.8,36.0,29.57,NNW,335,10.0,15.0,93,0.00,OVC,,0.00,WeatherDisplay:10.37,2013-03-10 12:10:00,
2013-03-10 07:15:00,37.8,36.0,29.57,NNW,339,13.0,15.0,93,0.00,OVC,,0.00,WeatherDisplay:10.37,2013-03-10 12:15:00,
2013-03-10 07:20:00,37.7,35.8,29.57,NNW,339,14.0,17.0,93,0.00,OVC,,0.00,WeatherDisplay:10.37,2013-03-10 12:20:00,
2013-03-10 07:25:00,37.4,35.6,29.57,NNW,337,13.0,18.0,93,0.00,OVC,,0.00,WeatherDisplay:10.37,2013-03-10 12:25:00,
2013-03-10 07:30:00,37.2,35.4,29.57,NNW,338,14.0,18.0,93,0.00,OVC,,0.00,WeatherDisplay:10.37,2013-03-10 12:30:00,
2013-03-10 07:40:00,37.1,35.3,29.58,NNW,337,10.0,16.0,93,0.00,OVC,,0.00,WeatherDisplay:10.37,2013-03-10 12:40:00,
2013-03-10 07:45:00,37.1,35.3,29.58,NNW,343,13.0,16.0,93,0.00,OVC,,0.00,WeatherDisplay:10.37,2013-03-10 12:45:00,
2013-03-10 07:50:00,37.0,35.2,29.58,NNW,341,13.0,18.0,93,0.00,OVC,,0.00,WeatherDisplay:10.37,2013-03-10 12:50:00,
2013-03-10 07:55:00,36.7,34.9,29.58,NNW,341,15.0,20.0,93,0.00,OVC,,0.00,WeatherDisplay:10.37,2013-03-10 12:55:00,
2013-03-10 08:00:00,36.6,34.8,29.59,NNW,338,13.0,18.0,93,0.00,OVC,,0.00,WeatherDisplay:10.37,2013-03-10 13:00:00,
2013-03-10 08:10:00,36.5,34.7,29.58,NNW,334,16.0,20.0,93,0.00,OVC,,0.00,WeatherDisplay:10.37,2013-03-10 13:10:00,
2013-03-10 08:20:00,36.3,34.5,29.60,NNW,339,14.0,20.0,93,0.00,OVC,,0.00,WeatherDisplay:10.37,2013-03-10 13:20:00,
2013-03-10 08:25:00,36.3,34.5,29.60,NNW,339,15.0,23.0,93,0.00,OVC,,0.00,WeatherDisplay:10.37,2013-03-10 13:25:00,
2013-03-10 08:30:00,36.1,34.3,29.61,NNW,339,14.0,21.0,93,0.00,OVC,,0.00,WeatherDisplay:10.37,2013-03-10 13:30:00,
2013-03-10 08:40:00,35.9,34.1,29.59,NNW,336,14.0,20.0,93,0.00,OVC,,0.00,WeatherDisplay:10.37,2013-03-10 13:40:00,
2013-03-10 08:45:00,35.8,34.0,29.58,NNW,337,14.0,20.0,93,0.00,OVC,,0.00,WeatherDisplay:10.37,2013-03-10 13:45:00,
2013-03-10 08:50:00,35.7,33.8,29.57,NNW,337,20.0,23.0,93,0.00,OVC,,0.00,WeatherDisplay:10.37,2013-03-10 13:50:00,
2013-03-10 08:55:00,35.6,33.8,29.58,NNW,335,15.0,20.0,93,0.00,OVC,,0.00,WeatherDisplay:10.37,2013-03-10 13:55:00,
2013-03-10 09:00:00,35.6,33.8,29.60,NNW,335,15.0,21.0,93,0.00,OVC,,0.00,WeatherDisplay:10.37,2013-03-10 14:00:00,
2013-03-10 09:10:00,35.6,33.8,29.60,NNW,335,15.0,18.0,93,0.00,-RA,,0.00,WeatherDisplay:10.37,2013-03-10 14:10:00,
2013-03-10 09:15:00,35.7,33.9,29.61,NNW,339,13.0,17.0,93,0.00,-RA,,0.00,WeatherDisplay:10.37,2013-03-10 14:15:00,
2013-03-10 09:20:00,35.6,33.8,29.60,NNW,339,13.0,20.0,93,0.00,-RA,,0.00,WeatherDisplay:10.37,2013-03-10 14:20:00,
2013-03-10 09:25:00,35.6,33.7,29.60,NNW,339,15.0,20.0,93,0.00,-RA,,0.00,WeatherDisplay:10.37,2013-03-10 14:25:00,
2013-03-10 09:30:00,35.6,33.8,29.61,NNW,338,13.0,17.0,93,0.00,-RA,,0.00,WeatherDisplay:10.37,2013-03-10 14:30:00,
2013-03-10 09:40:00,35.6,33.8,29.62,NNW,338,14.0,18.0,93,0.00,-RA,,0.00,WeatherDisplay:10.37,2013-03-10 14:40:00,
2013-03-10 09:45:00,35.5,33.7,29.62,NNW,343,14.0,17.0,93,0.00,-RA,,0.00,WeatherDisplay:10.37,2013-03-10 14:45:00,
2013-03-10 09:55:00,35.6,33.8,29.61,NNW,343,10.0,17.0,93,0.00,-RA,,0.00,WeatherDisplay:10.37,2013-03-10 14:55:00,
2013-03-10 10:00:00,35.6,33.8,29.60,NNW,346,14.0,20.0,93,0.00,-RA,,0.00,WeatherDisplay:10.37,2013-03-10 15:00:00,
2013-03-10 10:10:00,35.5,33.7,29.59,NNW,341,15.0,18.0,93,0.00,-RA,,0.00,WeatherDisplay:10.37,2013-03-10 15:10:00,
2013-03-10 10:15:00,35.4,33.3,29.60,NNW,342,14.0,23.0,92,0.00,-RA,,0.00,WeatherDisplay:10.37,2013-03-10 15:15:00,
2013-03-10 10:20:00,35.2,33.1,29.59,NNW,340,20.0,24.0,92,0.00,-RA,,0.00,WeatherDisplay:10.37,2013-03-10 15:20:00,
2013-03-10 10:25:00,35.3,33.2,29.59,NNW,337,18.0,23.0,92,0.00,-RA,,0.00,WeatherDisplay:10.37,2013-03-10 15:25:00,
2013-03-10 10:30:00,35.3,33.2,29.59,NNW,343,14.0,23.0,92,0.00,-RA,,0.00,WeatherDisplay:10.37,2013-03-10 15:30:00,
2013-03-10 10:35:00,35.3,33.5,29.59,NNW,340,13.0,20.0,93,0.00,-RA,,0.00,WeatherDisplay:10.37,2013-03-10 15:35:00,
2013-03-10 10:45:00,35.1,33.0,29.61,NNW,335,15.0,21.0,92,0.00,-RA,,0.00,WeatherDisplay:10.37,2013-03-10 15:45:00,
2013-03-10 10:55:00,35.1,33.0,29.61,NNW,335,16.0,20.0,92,0.00,-RA,,0.00,WeatherDisplay:10.37,2013-03-10 15:55:00,
2013-03-10 11:00:00,35.0,32.9,29.61,NNW,340,16.0,20.0,92,0.00,-RA,,0.00,WeatherDisplay:10.37,2013-03-10 16:00:00,
2013-03-10 11:06:00,35.1,33.0,29.61,NNW,341,14.0,21.0,92,0.00,-RA,,0.00,WeatherDisplay:10.37,2013-03-10 16:06:00,
2013-03-10 11:15:00,34.8,32.7,29.62,NNW,342,15.0,25.0,92,0.00,-RA,,0.00,WeatherDisplay:10.37,2013-03-10 16:15:00,
2013-03-10 11:20:00,34.7,32.6,29.62,NNW,341,17.0,23.0,92,0.00,-RA,,0.00,WeatherDisplay:10.37,2013-03-10 16:20:00,
2013-03-10 11:25:00,34.7,32.6,29.62,NNW,341,16.0,22.0,92,0.00,-RA,,0.00,WeatherDisplay:10.37,2013-03-10 16:25:00,
2013-03-10 11:30:00,34.7,32.6,29.62,NNW,338,18.0,22.0,92,0.00,-RA,,0.00,WeatherDisplay:10.37,2013-03-10 16:30:00,
2013-03-10 11:40:00,34.7,32.6,29.62,NNW,340,17.0,24.0,92,0.00,-RA,,0.00,WeatherDisplay:10.37,2013-03-10 16:40:00,
2013-03-10 11:50:00,34.8,32.4,29.64,NNW,340,18.0,23.0,91,0.00,-RA,,0.00,WeatherDisplay:10.37,2013-03-10 16:50:00,
2013-03-10 11:55:00,34.8,32.4,29.64,NNW,334,16.0,21.0,91,0.00,-RA,,0.00,WeatherDisplay:10.37,2013-03-10 16:55:00,
2013-03-10 12:00:00,34.7,32.3,29.64,NNW,332,15.0,23.0,91,0.00,-RA,,0.00,WeatherDisplay:10.37,2013-03-10 17:00:00,
2013-03-10 12:05:00,34.8,32.7,29.65,NNW,336,13.0,23.0,92,0.00,-RA,,0.00,WeatherDisplay:10.37,2013-03-10 17:05:00,
2013-03-10 12:15:00,34.7,32.3,29.65,NNW,333,15.0,22.0,91,0.00,-RA,,0.00,WeatherDisplay:10.37,2013-03-10 17:15:00,
2013-03-10 12:20:00,34.7,32.3,29.65,NW,326,14.0,20.0,91,0.00,-RA,,0.00,WeatherDisplay:10.37,2013-03-10 17:20:00,
2013-03-10 12:30:00,34.7,32.3,29.64,NNW,334,13.0,20.0,91,0.00,-RA,,0.00,WeatherDisplay:10.37,2013-03-10 17:30:00,
2013-03-10 12:40:00,34.5,32.4,29.64,NNW,333,17.0,22.0,92,0.00,-RA,,0.00,WeatherDisplay:10.37,2013-03-10 17:40:00,
2013-03-10 12:45:00,34.8,32.7,29.63,NNW,337,15.0,21.0,92,0.00,-RA,,0.00,WeatherDisplay:10.37,2013-03-10 17:45:00,
2013-03-10 12:50:00,34.9,32.8,29.63,NNW,340,15.0,21.0,92,0.00,-RA,,0.00,WeatherDisplay:10.37,2013-03-10 17:50:00,
2013-03-10 12:55:00,34.8,32.7,29.63,NNW,338,17.0,24.0,92,0.00,-RA,,0.00,WeatherDisplay:10.37,2013-03-10 17:55:00,
2013-03-10 13:00:00,34.7,32.3,29.63,NNW,337,16.0,22.0,91,0.00,-RA,,0.00,WeatherDisplay:10.37,2013-03-10 18:00:00,
2013-03-10 13:10:00,34.7,32.3,29.63,NW,325,13.0,16.0,91,0.00,OVC,,0.00,WeatherDisplay:10.37,2013-03-10 18:10:00,
2013-03-10 13:15:00,34.1,31.8,29.63,NW,320,14.0,18.0,91,0.00,OVC,,0.00,WeatherDisplay:10.37,2013-03-10 18:15:00,
2013-03-10 13:20:00,33.9,31.6,29.64,NW,323,15.0,20.0,91,0.00,OVC,,0.00,WeatherDisplay:10.37,2013-03-10 18:20:00,
2013-03-10 13:25:00,33.8,31.5,29.64,NW,325,16.0,21.0,91,0.00,OVC,,0.00,WeatherDisplay:10.37,2013-03-10 18:25:00,
2013-03-10 13:30:00,33.7,31.4,29.64,NW,323,15.0,21.0,91,0.00,OVC,,0.00,WeatherDisplay:10.37,2013-03-10 18:30:00,
2013-03-10 13:40:00,33.3,30.9,29.64,NW,322,15.0,20.0,91,0.00,OVC,,0.00,WeatherDisplay:10.37,2013-03-10 18:40:00,
2013-03-10 13:45:00,33.2,30.8,29.64,NW,323,17.0,22.0,91,0.00,OVC,,0.00,WeatherDisplay:10.37,2013-03-10 18:45:00,
2013-03-10 13:50:00,33.0,30.4,29.64,NW,321,15.0,22.0,90,0.00,OVC,,0.00,WeatherDisplay:10.37,2013-03-10 18:50:00,
2013-03-10 14:00:00,32.5,30.2,29.65,NW,323,14.0,20.0,91,0.00,OVC,,0.00,WeatherDisplay:10.37,2013-03-10 19:00:00,
2013-03-10 14:05:00,32.2,29.9,29.65,NW,323,17.0,23.0,91,0.00,-RA,,0.00,WeatherDisplay:10.37,2013-03-10 19:05:00,
2013-03-10 14:10:00,32.1,29.5,29.65,NW,324,15.0,21.0,90,0.00,-RA,,0.00,WeatherDisplay:10.37,2013-03-10 19:10:00,
2013-03-10 14:15:00,31.8,29.2,29.65,NW,322,18.0,25.0,90,0.00,-RA,,0.00,WeatherDisplay:10.37,2013-03-10 19:15:00,
2013-03-10 14:20:00,31.5,28.9,29.65,NW,325,18.0,27.0,90,0.00,-RA,,0.00,WeatherDisplay:10.37,2013-03-10 19:20:00,
2013-03-10 14:25:00,31.4,28.8,29.65,NW,326,20.0,25.0,90,0.00,-RA,,0.00,WeatherDisplay:10.37,2013-03-10 19:25:00,
2013-03-10 14:30:00,31.5,28.9,29.65,NNW,328,17.0,23.0,90,0.00,-RA,,0.00,WeatherDisplay:10.37,2013-03-10 19:30:00,
2013-03-10 14:35:00,31.6,29.0,29.66,NNW,334,14.0,20.0,90,0.00,-RA,,0.00,WeatherDisplay:10.37,2013-03-10 19:35:00,
2013-03-10 14:40:00,31.3,28.7,29.66,NW,321,16.0,24.0,90,0.00,-RA,,0.00,WeatherDisplay:10.37,2013-03-10 19:40:00,
2013-03-10 14:45:00,31.2,28.6,29.66,NW,316,18.0,23.0,90,0.00,-RA,,0.00,WeatherDisplay:10.37,2013-03-10 19:45:00,
2013-03-10 14:50:00,31.3,28.4,29.66,NW,324,16.0,25.0,89,0.00,-RA,,0.00,WeatherDisplay:10.37,2013-03-10 19:50:00,
2013-03-10 15:00:00,31.3,28.5,29.66,NW,322,17.0,24.0,89,0.00,-RA,,0.00,WeatherDisplay:10.37,2013-03-10 20:00:00,
2013-03-10 15:10:00,31.4,28.6,29.66,NW,324,14.0,20.0,89,0.00,OVC,,0.00,WeatherDisplay:10.37,2013-03-10 20:10:00,
2013-03-10 15:15:00,31.2,28.4,29.67,NW,323,15.0,25.0,89,0.00,OVC,,0.00,WeatherDisplay:10.37,2013-03-10 20:15:00,
2013-03-10 15:25:00,31.2,28.3,29.67,NW,322,13.0,21.0,89,0.00,OVC,,0.00,WeatherDisplay:10.37,2013-03-10 20:25:00,
2013-03-10 15:30:00,31.1,28.3,29.67,NW,322,16.0,23.0,89,0.00,OVC,,0.00,WeatherDisplay:10.37,2013-03-10 20:30:00,
2013-03-10 15:40:00,30.8,27.9,29.68,NW,321,13.0,20.0,89,0.00,OVC,,0.00,WeatherDisplay:10.37,2013-03-10 20:40:00,
2013-03-10 15:45:00,30.6,27.7,29.68,NW,325,15.0,25.0,89,0.00,OVC,,0.00,WeatherDisplay:10.37,2013-03-10 20:45:00,
2013-03-10 15:50:00,30.7,27.8,29.69,NNW,330,15.0,21.0,89,0.00,OVC,,0.00,WeatherDisplay:10.37,2013-03-10 20:50:00,
2013-03-10 16:00:00,30.3,27.4,29.70,NW,319,13.0,23.0,89,0.00,OVC,,0.00,WeatherDisplay:10.37,2013-03-10 21:00:00,
2013-03-10 16:10:00,30.2,27.3,29.70,NW,320,17.0,23.0,89,0.00,OVC,,0.00,WeatherDisplay:10.37,2013-03-10 21:10:00,
2013-03-10 16:15:00,30.1,27.2,29.70,NW,323,13.0,21.0,89,0.00,OVC,,0.00,WeatherDisplay:10.37,2013-03-10 21:15:00,
2013-03-10 16:20:00,30.1,27.3,29.70,NW,326,14.0,20.0,89,0.00,OVC,,0.00,WeatherDisplay:10.37,2013-03-10 21:20:00,
2013-03-10 16:30:00,29.8,26.9,29.71,NW,322,15.0,22.0,89,0.00,OVC,,0.00,WeatherDisplay:10.37,2013-03-10 21:30:00,
2013-03-10 16:35:00,29.6,26.5,29.71,NW,322,18.0,24.0,88,0.00,OVC,,0.00,WeatherDisplay:10.37,2013-03-10 21:35:00,
2013-03-10 16:40:00,29.7,26.9,29.72,NW,320,13.0,21.0,89,0.00,OVC,,0.00,WeatherDisplay:10.37,2013-03-10 21:40:00,
2013-03-10 16:50:00,29.6,26.8,29.72,NW,323,16.0,18.0,89,0.00,OVC,,0.00,WeatherDisplay:10.37,2013-03-10 21:50:00,
2013-03-10 17:00:00,29.4,26.3,29.72,NW,316,15.0,21.0,88,0.00,OVC,,0.00,WeatherDisplay:10.37,2013-03-10 22:00:00,
2013-03-10 17:05:00,29.4,26.3,29.72,NW,321,16.0,23.0,88,0.00,-SN,,0.00,WeatherDisplay:10.37,2013-03-10 22:05:00,
2013-03-10 17:15:00,29.4,26.3,29.73,NW,321,15.0,20.0,88,0.00,-SN,,0.00,WeatherDisplay:10.37,2013-03-10 22:15:00,
2013-03-10 17:20:00,29.2,26.1,29.73,NW,319,13.0,25.0,88,0.00,-SN,,0.00,WeatherDisplay:10.37,2013-03-10 22:20:00,
2013-03-10 17:30:00,28.9,26.1,29.74,NW,318,16.0,22.0,89,0.00,-SN,,0.00,WeatherDisplay:10.37,2013-03-10 22:30:00,
2013-03-10 17:40:00,28.8,26.0,29.74,NW,325,14.0,18.0,89,0.00,-SN,,0.00,WeatherDisplay:10.37,2013-03-10 22:40:00,
2013-03-10 17:45:00,28.8,25.9,29.74,NW,319,15.0,24.0,89,0.00,-SN,,0.00,WeatherDisplay:10.37,2013-03-10 22:45:00,
2013-03-10 17:50:00,28.8,26.0,29.74,NW,321,13.0,22.0,89,0.00,-SN,,0.00,WeatherDisplay:10.37,2013-03-10 22:50:00,
2013-03-10 17:55:00,28.7,25.9,29.75,NW,321,17.0,23.0,89,0.00,-SN,,0.00,WeatherDisplay:10.37,2013-03-10 22:55:00,
2013-03-10 18:00:00,28.8,26.0,29.75,NW,325,15.0,17.0,89,0.00,-SN,,0.00,WeatherDisplay:10.37,2013-03-10 23:00:00,
2013-03-10 18:05:00,28.8,26.0,29.75,NNW,328,14.0,22.0,89,0.00,OVC,,0.00,WeatherDisplay:10.37,2013-03-10 23:05:00,
2013-03-10 18:10:00,28.8,26.0,29.75,NW,321,15.0,21.0,89,0.00,OVC,,0.00,WeatherDisplay:10.37,2013-03-10 23:10:00,
2013-03-10 18:15:00,28.8,25.7,29.75,NW,321,16.0,22.0,88,0.00,OVC,,0.00,WeatherDisplay:10.37,2013-03-10 23:15:00,
2013-03-10 18:20:00,28.9,25.8,29.76,NW,324,16.0,22.0,88,0.00,OVC,,0.00,WeatherDisplay:10.37,2013-03-10 23:20:00,
2013-03-10 18:30:00,28.9,25.5,29.76,NW,326,16.0,26.0,87,0.00,OVC,,0.00,WeatherDisplay:10.37,2013-03-10 23:30:00,
2013-03-10 18:35:00,28.9,25.6,29.76,NW,326,13.0,20.0,87,0.00,OVC,,0.00,WeatherDisplay:10.37,2013-03-10 23:35:00,
2013-03-10 18:40:00,28.8,25.4,29.77,NW,324,13.0,21.0,87,0.00,OVC,,0.00,WeatherDisplay:10.37,2013-03-10 23:40:00,
2013-03-10 18:45:00,28.6,25.5,29.77,NW,323,14.0,20.0,88,0.00,OVC,,0.00,WeatherDisplay:10.37,2013-03-10 23:45:00,
2013-03-10 18:50:00,28.3,25.2,29.77,NW,315,15.0,20.0,88,0.00,OVC,,0.00,WeatherDisplay:10.37,2013-03-10 23:50:00,
2013-03-10 19:00:00,28.0,24.9,29.77,NW,317,15.0,21.0,88,0.00,OVC,,0.00,WeatherDisplay:10.37,2013-03-11 00:00:00,
2013-03-10 19:10:00,27.8,24.7,29.77,NW,323,12.0,20.0,88,0.00,OVC,,0.00,WeatherDisplay:10.37,2013-03-11 00:10:00,
2013-03-10 19:20:00,27.6,24.5,29.78,NW,324,12.0,16.0,88,0.00,OVC,,0.00,WeatherDisplay:10.37,2013-03-11 00:20:00,
2013-03-10 19:30:00,27.3,24.2,29.79,NW,316,14.0,20.0,88,0.00,OVC,,0.00,WeatherDisplay:10.37,2013-03-11 00:30:00,
2013-03-10 19:40:00,27.3,24.2,29.80,NW,319,13.0,17.0,88,0.00,OVC,,0.00,WeatherDisplay:10.37,2013-03-11 00:40:00,
2013-03-10 19:45:00,27.3,23.9,29.80,NW,317,14.0,22.0,87,0.00,OVC,,0.00,WeatherDisplay:10.37,2013-03-11 00:45:00,
2013-03-10 19:50:00,27.2,23.9,29.80,NW,318,13.0,20.0,87,0.00,OVC,,0.00,WeatherDisplay:10.37,2013-03-11 00:50:00,
2013-03-10 19:55:00,27.2,23.6,29.80,NW,318,10.0,20.0,86,0.00,OVC,,0.00,WeatherDisplay:10.37,2013-03-11 00:55:00,
2013-03-10 20:00:00,27.2,23.6,29.81,NW,315,13.0,21.0,86,0.00,OVC,,0.00,WeatherDisplay:10.37,2013-03-11 01:00:00,
2013-03-10 20:10:00,27.1,23.5,29.81,NW,317,10.0,17.0,86,0.00,OVC,,0.00,WeatherDisplay:10.37,2013-03-11 01:10:00,
2013-03-10 20:20:00,26.9,22.9,29.82,NW,313,16.0,25.0,85,0.00,OVC,,0.00,WeatherDisplay:10.37,2013-03-11 01:20:00,
2013-03-10 20:30:00,26.5,22.6,29.82,NW,317,14.0,22.0,85,0.00,OVC,,0.00,WeatherDisplay:10.37,2013-03-11 01:30:00,
2013-03-10 20:35:00,26.5,22.6,29.82,NW,314,12.0,23.0,85,0.00,OVC,,0.00,WeatherDisplay:10.37,2013-03-11 01:35:00,
2013-03-10 20:45:00,26.4,22.5,29.82,NW,314,13.0,20.0,85,0.00,OVC,,0.00,WeatherDisplay:10.37,2013-03-11 01:45:00,
2013-03-10 20:55:00,26.2,22.0,29.82,NW,323,15.0,23.0,84,0.00,OVC,,0.00,WeatherDisplay:10.37,2013-03-11 01:55:00,
2013-03-10 21:00:00,26.2,22.3,29.83,NW,322,14.0,21.0,85,0.00,OVC,,0.00,WeatherDisplay:10.37,2013-03-11 02:00:00,
2013-03-10 21:05:00,26.2,22.0,29.83,NW,320,14.0,18.0,84,0.00,OVC,,0.00,WeatherDisplay:10.37,2013-03-11 02:05:00,
2013-03-10 21:10:00,26.1,21.9,29.83,NW,321,16.0,21.0,84,0.00,OVC,,0.00,WeatherDisplay:10.37,2013-03-11 02:10:00,
2013-03-10 21:20:00,26.0,21.8,29.83,NW,310,14.0,21.0,84,0.00,OVC,,0.00,WeatherDisplay:10.37,2013-03-11 02:20:00,
2013-03-10 21:30:00,25.8,21.9,29.84,NW,319,12.0,20.0,85,0.00,OVC,,0.00,WeatherDisplay:10.37,2013-03-11 02:30:00,
2013-03-10 21:40:00,25.4,21.5,29.83,NW,322,16.0,22.0,85,0.00,OVC,,0.00,WeatherDisplay:10.37,2013-03-11 02:40:00,
2013-03-10 21:45:00,25.4,21.5,29.83,NW,318,12.0,18.0,85,0.00,OVC,,0.00,WeatherDisplay:10.37,2013-03-11 02:45:00,
2013-03-10 21:50:00,25.4,21.5,29.84,NW,317,14.0,25.0,85,0.00,OVC,,0.00,WeatherDisplay:10.37,2013-03-11 02:50:00,
2013-03-10 22:00:00,25.3,21.1,29.84,NW,318,15.0,24.0,84,0.00,OVC,,0.00,WeatherDisplay:10.37,2013-03-11 03:00:00,
2013-03-10 22:05:00,25.3,21.1,29.84,NW,317,14.0,21.0,84,0.00,OVC,,0.00,WeatherDisplay:10.37,2013-03-11 03:05:00,
2013-03-10 22:15:00,25.2,20.8,29.84,NW,319,17.0,24.0,83,0.00,OVC,,0.00,WeatherDisplay:10.37,2013-03-11 03:15:00,
2013-03-10 22:20:00,25.2,20.8,29.85,NW,320,14.0,21.0,83,0.00,OVC,,0.00,WeatherDisplay:10.37,2013-03-11 03:20:00,
2013-03-10 22:30:00,25.2,21.1,29.85,NW,314,10.0,20.0,84,0.00,OVC,,0.00,WeatherDisplay:10.37,2013-03-11 03:30:00,
2013-03-10 22:40:00,25.1,21.0,29.85,NW,322,14.0,24.0,84,0.00,OVC,,0.00,WeatherDisplay:10.37,2013-03-11 03:40:00,
2013-03-10 22:45:00,25.0,20.6,29.85,NW,314,14.0,22.0,83,0.00,OVC,,0.00,WeatherDisplay:10.37,2013-03-11 03:45:00,
2013-03-10 22:50:00,24.9,20.5,29.85,NW,316,16.0,22.0,83,0.00,OVC,,0.00,WeatherDisplay:10.37,2013-03-11 03:50:00,
2013-03-10 22:55:00,24.9,20.5,29.85,NW,322,13.0,20.0,83,0.00,OVC,,0.00,WeatherDisplay:10.37,2013-03-11 03:55:00,
2013-03-10 23:00:00,25.0,20.5,29.85,NW,323,14.0,20.0,83,0.00,OVC,,0.00,WeatherDisplay:10.37,2013-03-11 04:00:00,
2013-03-10 23:05:00,25.1,20.6,29.85,NW,323,15.0,20.0,83,0.00,OVC,,0.00,WeatherDisplay:10.37,2013-03-11 04:05:00,
2013-03-10 23:10:00,25.1,20.7,29.86,NW,320,10.0,16.0,83,0.00,OVC,,0.00,WeatherDisplay:10.37,2013-03-11 04:10:00,
2013-03-10 23:15:00,25.1,20.6,29.86,NW,312,14.0,22.0,83,0.00,OVC,,0.00,WeatherDisplay:10.37,2013-03-11 04:15:00,
2013-03-10 23:20:00,24.9,20.5,29.86,NW,312,15.0,20.0,83,0.00,OVC,,0.00,WeatherDisplay:10.37,2013-03-11 04:20:00,
2013-03-10 23:30:00,24.9,20.5,29.86,NW,318,10.0,18.0,83,0.00,OVC,,0.00,WeatherDisplay:10.37,2013-03-11 04:30:00,
2013-03-10 23:40:00,24.9,20.5,29.86,NW,319,14.0,18.0,83,0.00,OVC,,0.00,WeatherDisplay:10.37,2013-03-11 04:40:00,
2013-03-10 23:45:00,24.9,20.5,29.87,NW,315,13.0,21.0,83,0.00,OVC,,0.00,WeatherDisplay:10.37,2013-03-11 04:45:00,
2013-03-10 23:50:00,24.9,20.5,29.87,NW,316,12.0,20.0,83,0.00,OVC,,0.00,WeatherDisplay:10.37,2013-03-11 04:50:00,
2013-03-10 23:55:00,24.9,20.5,29.86,NW,316,15.0,20.0,83,0.00,OVC,,0.00,WeatherDisplay:10.37,2013-03-11 04:55:00,